星链-11687 (STARLINK-11687)

导读 | 豆包AI

STARLINK-11687是美国于2025年4月13日发射的星链系列卫星,隶属于SpaceX打造的星链卫星互联网星座项目。星链系统旨在为全球范围提供高速低延迟互联网服务,该卫星的入轨进一步扩充了星链星座的在轨卫星规模,助力全球网络覆盖覆盖能力的持续提升。

基本信息
目录编号:
63555
目录名称:
STARLINK-11687
国际标识:
2025-075H
轨道中心:
EARTH
卫星名称:
星链-11687
卫星全名:
星链-11687 (STARLINK-11687)
卫星状态:
已陨落 最后检测时间 2026-03-31
发射日期:
2025-04-13 UTC
国别 :
美国 (US)
星等 :
--
轨道信息
数据来源 国际轨道数据
星历时间: 2026-03-31T13:06:46+0800
轨道信息已过期32天
半长轴: 6561.969km
偏心率: 0.001054
轨道倾角: 42.983°
近地点辐角 226.799°
升交点赤经 16.804°
平近点角 133.202°
近地点: 176.915km
远地点: 190.749km
周期: 88.168分钟
每日圈数: 16.332457
详细信息
固有亮度:
5
最大亮度:
2.5
卫星平台:
Starlink V1.0
覆盖范围:
全球
运营商:
太空探索技术公司
运营商所在国:
美国
制造商(研发单位):
太空探索技术公司
制造商所在国:
美国
使用方式:
暂无
卫星简介
Starlink 计划是 SpaceX 推出的全球卫星互联网项目,通过发射低轨道卫星,为全球尤其是偏远地区提供高速、低延迟的互联网服务。自 2019 年起,Starlink 已部署数千颗卫星,旨在缩小全球数字鸿沟,推动互联网普及。该项目还为军事、航空等行业提供通信支持,带来广泛经济效益。